Temp
12 12 10 12 13 15 15 15 16 16 16 15 14 14 16 16 15 15 16 15 14 12 12 12 12 12 13 13 13 13 12 11 11 10 10 10 10 9 9 9 9 8 8 8
11 10 12 12 13 14 15 15 16 16 16 15 14 15 16 15 15 15 15 14 13 11 9 8 9 10 11 12 12 12 12 11 11 11 11 11 10 9 9 9 9 8 8 8
11 13 12 12 12 13 13 14 15 17 16 15 13 15 17 17 15 14 13 12 11 10 9 7 7 8 10 11 12 12 12 11 11 10 11 10 9 9 8 9 9 8 8 8
12 12 11 11 12 12 12 12 14 16 16 15 14 15 16 18 16 15 14 12 10 9 8 7 7 7 9 10 11 12 11 11 10 10 11 10 10 9 9 9 9 8 8 8
12 10 11 11 12 13 13 12 12 15 15 14 14 15 15 16 17 16 14 11 9 8 8 8 7 8 9 10 11 11 10 10 10 10 10 10 10 9 9 9 9 8 8 8
12 12 12 13 12 13 10 12 11 10 11 9 13 14 14 16 17 18 14 11 10 8 8 8 8 8 8 9 9 10 10 9 10 10 10 10 9 9 9 9 8 8 8 8
11 11 12 12 11 12 13 13 8 10 7 11 10 12 16 16 16 16 14 11 9 8 7 7 7 7 7 8 8 9 9 9 9 9 9 9 9 9 9 9 9 8 8 8
11 10 10 11 13 12 11 13 11 13 11 12 10 13 15 14 13 15 13 11 9 8 7 7 7 7 7 8 8 8 9 9 9 9 9 9 9 9 9 9 9 8 8 8
10 12 10 10 11 13 12 12 12 9 2 9 12 12 14 12 14 13 12 10 9 8 7 7 6 7 7 8 8 9 9 9 9 9 9 9 9 9 9 8 8 8 8 8
11 11 9 10 12 12 12 12 13 9 10 11 11 12 16 15 13 11 11 10 10 8 7 7 6 7 8 9 9 9 9 9 9 9 9 9 9 8 8 8 8 8 8 8
9 11 8 10 10 11 11 11 13 12 11 12 10 14 12 15 13 12 11 10 9 9 8 7 6 7 8 8 8 9 8 9 9 9 9 9 9 8 8 8 8 8 8 8
10 9 7 9 9 9 9 13 13 14 11 7 10 13 12 11 12 11 11 10 9 8 7 7 6 7 7 8 8 8 8 9 9 9 9 9 8 8 8 8 8 8 8 8
11 10 8 9 10 8 8 10 13 12 10 10 12 17 10 10 10 10 10 9 8 8 7 6 5 5 6 7 8 8 9 9 9 8 8 8 8 8 8 8 8 8 8 8
13 7 14 14 13 11 9 9 11 14 14 15 12 16 14 11 10 9 9 8 7 6 6 5 4 4 6 7 8 8 8 9 8 8 8 8 8 8 8 8 7 7 8 8
11 12 9 7 10 11 11 12 11 12 15 14 16 11 14 11 10 8 8 7 6 5 4 4 4 3 5 6 7 7 8 8 8 8 8 8 8 8 8 7 7 7 7 7
9 7 6 7 5 8 8 11 11 11 13 14 8 9 10 10 7 8 7 6 6 5 4 4 4 3 4 5 6 7 8 8 8 8 8 8 8 8 8 7 7 7 7 7
9 7 8 11 5 9 10 10 10 11 13 13 11 16 10 9 10 10 9 8 8 6 5 4 4 3 4 5 6 6 6 7 7 7 7 7 7 7 7 7 7 7 7 6
11 10 9 7 9 11 13 12 11 12 12 13 14 13 14 11 12 12 9 9 7 6 5 4 3 3 4 4 5 5 5 6 6 6 6 6 6 6 6 6 6 6 6 6
12 11 8 9 10 10 11 9 10 11 13 12 13 14 13 9 9 9 7 7 8 5 4 4 4 3 3 3 4 4 4 4 5 5 5 6 6 6 6 6 6 6 6 6
11 11 11 7 8 11 12 8 9 12 13 14 13 13 8 10 13 12 6 7 4 4 3 2 3 2 3 3 4 4 3 3 3 4 5 5 5 6 6 6 6 6 5 6
9 10 10 8 7 7 10 7 12 12 15 12 13 13 9 13 16 11 7 5 4 3 2 2 2 2 2 2 3 2 2 1 2 3 4 4 5 5 5 5 5 5 5 4
9 10 10 8 7 9 7 9 13 15 11 12 11 12 12 12 7 7 7 4 3 1 1 1 0 -0 1 2 3 -1 -1 -0 2 3 3 3 4 4 4 4 4 4 3 4
6 8 8 10 11 9 9 11 10 8 11 10 9 10 11 7 6 7 4 3 2 1 1 0 -1 -2 -1 0 0 -2 -2 -0 1 1 0 1 2 3 3 4 4 3 3 4
5 5 6 8 9 7 8 8 9 9 10 8 7 8 7 6 6 5 4 3 2 1 -0 -1 -2 -3 -3 -2 -1 -1 -1 -0 -0 -1 -1 -1 -0 0 0 1 1 2 2 4
5 5 5 6 6 8 7 6 8 6 5 5 5 7 6 5 5 4 3 2 1 -1 -2 -1 -2 -4 -4 -2 -2 -1 -0 0 0 -1 -1 -1 -1 -1 -1 -1 -1 0 1 2
5 6 6 8 8 8 9 6 6 4 4 4 5 4 5 5 4 3 2 1 -0 -2 -3 -3 -4 -4 -4 -2 -1 -1 -0 1 2 0 -1 -2 -2 -1 -1 -1 -1 -1 -1 0
Height
793 802 808 801 793 791 793 797 794 789 786 789 789 784 771 765 767 764 760 761 762 764 763 763 767 769 774 781 785 790 795 800 802 804 808 810 812 813 814 815 815 816 816 816
800 800 793 795 796 794 793 794 793 788 786 789 787 779 764 762 757 755 755 756 758 761 763 765 765 767 771 777 783 789 793 798 801 803 805 808 809 812 812 813 813 815 816 814
792 781 786 790 798 800 799 799 792 788 787 788 793 778 760 751 753 753 755 757 757 758 760 765 767 768 771 775 780 786 792 797 801 803 804 806 808 810 812 813 813 814 815 816
789 780 787 792 791 797 803 794 792 789 792 800 793 791 765 751 752 751 753 756 758 759 761 764 766 768 769 774 780 785 790 795 799 802 804 805 806 808 810 811 812 814 815 816
779 784 783 788 783 786 790 791 794 791 795 798 796 798 767 757 750 746 749 754 756 757 758 761 764 767 770 775 780 785 790 794 797 801 805 805 805 807 809 810 811 812 814 815
777 776 775 772 776 778 792 793 800 809 809 834 795 791 771 754 742 736 744 750 754 757 759 761 764 768 771 777 781 785 789 793 795 798 802 805 805 806 808 810 811 811 813 815
775 775 771 772 778 783 781 790 833 828 848 812 805 795 752 742 735 735 741 748 753 757 759 762 764 768 773 777 781 784 787 791 794 796 799 803 804 806 808 809 809 811 812 814
767 781 770 767 763 771 785 777 799 801 814 792 805 780 749 738 737 732 737 743 752 757 759 761 763 766 770 775 780 783 786 790 794 795 797 801 803 804 807 808 809 810 810 812
759 756 760 760 757 758 777 778 773 806 858 818 784 768 742 740 736 737 739 745 749 753 756 759 763 765 768 772 777 781 785 789 792 794 796 799 801 803 805 807 809 810 810 811
739 754 767 762 758 759 757 761 777 797 807 803 786 773 744 732 733 739 740 743 747 750 753 757 761 763 766 770 775 780 783 786 790 792 794 796 798 801 804 806 808 809 809 810
737 736 772 764 762 756 764 766 758 763 774 777 796 753 734 720 724 728 734 738 742 746 749 753 758 761 764 768 773 777 781 784 786 789 791 794 797 800 801 803 806 807 808 808
728 741 773 760 761 759 758 742 744 747 771 795 781 752 727 729 726 727 731 736 740 743 746 750 754 758 762 766 770 774 778 781 784 787 790 791 794 798 800 801 803 804 806 807
711 730 760 758 759 762 758 747 738 746 755 767 762 722 730 730 729 730 731 737 739 742 746 749 752 755 758 761 766 770 775 778 782 785 788 790 792 794 798 800 801 802 804 805
699 732 698 698 702 725 747 741 738 730 732 729 740 716 720 726 731 731 732 736 740 743 745 747 751 752 754 758 762 766 771 775 778 782 784 786 789 792 795 799 799 801 803 804
700 699 716 729 714 712 714 720 734 735 716 727 705 730 719 723 725 730 732 737 742 745 745 746 748 751 753 756 759 762 766 770 774 778 780 782 785 790 792 795 797 798 800 802
699 716 722 727 732 724 726 715 724 719 712 715 739 733 719 719 726 731 732 736 738 741 743 744 745 748 751 753 755 758 761 765 769 772 774 779 782 786 790 792 794 796 798 800
696 707 714 697 732 719 721 707 714 713 711 704 724 670 711 719 715 715 722 725 729 736 738 740 743 745 749 751 753 756 759 762 765 769 771 776 779 783 787 789 791 793 795 798
674 686 696 717 709 699 675 681 691 696 693 694 686 686 690 698 699 699 708 716 724 732 736 740 742 745 748 750 753 755 758 760 763 765 769 774 778 782 786 788 790 792 794 796
654 670 699 696 693 692 684 687 687 689 677 680 674 675 684 698 703 704 706 712 715 723 730 738 741 744 747 748 750 753 755 758 760 763 767 772 776 780 783 785 787 789 793 795
653 655 666 697 696 673 658 675 673 680 678 648 657 664 690 691 692 684 701 707 716 721 727 735 740 744 746 748 750 752 754 757 760 764 768 771 774 777 781 783 784 786 789 792
651 657 658 678 691 685 656 670 664 683 643 632 638 651 673 663 651 675 692 705 713 719 727 735 740 743 746 749 750 752 757 759 762 765 768 770 774 777 779 781 783 785 787 790
641 640 646 669 682 672 653 662 648 625 632 632 636 640 644 646 665 675 687 699 710 720 729 735 739 742 748 750 750 754 757 760 762 766 768 770 774 777 779 781 782 784 786 788
655 640 645 631 628 633 632 625 627 633 633 635 636 638 645 660 666 674 689 701 708 718 727 734 737 744 750 752 754 757 760 762 764 767 768 771 773 776 777 779 781 784 785 787
647 644 647 633 626 632 629 629 626 631 633 636 636 638 649 659 668 680 691 704 713 721 728 734 739 746 751 755 757 758 762 764 765 768 770 772 773 775 777 778 780 783 785 785
642 645 651 640 630 628 630 632 627 632 637 638 639 640 650 658 672 677 691 704 715 722 731 736 740 745 752 756 758 761 764 766 767 769 772 773 774 776 778 779 781 782 784 784
640 640 643 626 621 618 617 618 626 635 638 639 639 649 653 655 666 682 696 706 713 721 730 737 742 746 753 756 759 763 766 768 768 770 772 773 775 778 779 780 782 782 783 782
Wind_Speed
3 4 7 11 9 2 4 4 3 3 1 3 6 10 15 10 6 9 10 8 9 8 4 5 10 17 22 24 28 28 27 23 21 19 14 8 6 5 4 2 2 2 4 6
4 9 9 4 4 3 2 3 4 4 1 3 5 13 13 8 7 7 7 7 7 5 4 4 13 20 25 28 29 29 27 24 21 16 12 6 7 6 5 4 3 1 3 4
7 4 8 8 5 5 3 5 3 4 3 1 6 8 5 2 3 3 3 3 2 7 7 5 9 18 23 28 31 30 27 23 19 15 12 9 8 5 6 5 3 1 1 3
6 5 6 6 6 8 6 8 7 4 1 4 2 5 6 3 6 5 5 4 5 5 5 4 7 15 24 27 29 28 25 22 18 14 12 10 6 6 6 6 4 2 1 2
8 10 7 6 7 9 5 3 7 2 1 4 1 2 7 1 6 8 8 7 6 7 8 9 9 16 22 26 27 25 23 20 17 14 11 9 7 7 7 6 5 3 2 2
4 1 4 7 4 12 8 6 6 4 3 2 7 7 5 5 8 3 4 7 8 7 7 6 12 18 21 22 23 23 22 19 17 15 11 9 7 8 8 6 4 3 2 1
3 4 3 3 7 3 3 6 2 3 2 6 3 2 7 7 5 4 8 9 8 7 7 8 9 13 20 22 22 22 21 19 17 15 12 9 7 8 7 6 4 3 2 2
10 5 11 6 6 9 7 8 6 7 4 3 2 7 7 4 6 3 6 8 7 7 6 8 9 15 21 23 22 22 21 19 17 14 12 9 8 8 8 6 5 3 2 1
9 7 3 2 5 10 6 7 6 7 2 2 5 7 10 6 5 5 6 7 9 8 8 8 8 17 22 23 23 23 21 18 17 14 12 11 10 9 8 7 5 3 2 1
8 3 2 1 1 3 5 8 4 2 3 4 4 5 6 5 10 7 8 8 7 7 7 7 8 17 22 23 22 21 20 19 17 15 13 12 11 10 9 8 7 4 3 2
6 4 1 3 6 11 4 3 2 4 5 5 1 6 8 10 8 14 10 9 9 8 8 8 8 17 22 20 20 21 20 19 17 16 15 14 12 11 10 9 8 5 5 3
6 5 4 6 3 2 2 3 7 5 7 2 3 7 1 5 5 8 8 7 6 6 8 7 9 16 18 20 20 21 20 20 18 16 16 14 12 11 12 11 10 8 6 5
15 5 4 3 3 2 6 9 10 3 3 9 7 11 1 3 4 6 9 8 7 7 7 7 6 10 17 21 22 22 21 20 18 17 16 15 14 13 12 12 11 9 8 6
19 3 16 16 8 9 9 9 9 10 11 11 9 11 4 5 7 6 7 7 7 7 7 6 6 7 15 19 21 20 19 18 18 18 17 17 16 14 13 12 12 10 9 7
12 16 11 4 4 5 8 19 17 14 23 14 18 10 7 9 11 7 7 6 7 6 7 7 7 6 11 14 15 16 17 17 18 19 19 18 16 14 14 13 13 12 11 9
6 4 4 7 3 5 2 11 19 24 21 21 5 7 8 2 8 7 8 9 8 8 8 7 7 7 10 14 15 15 16 18 19 21 21 18 17 17 16 14 13 13 11 10
11 6 4 10 7 8 3 18 19 15 18 24 10 31 8 6 10 14 15 14 12 8 8 8 8 8 12 12 12 12 12 13 17 18 17 18 18 18 17 14 13 13 12 10
18 15 3 4 9 10 11 12 18 23 17 24 27 7 15 9 14 10 6 14 11 10 8 6 6 9 9 9 9 9 10 11 11 13 14 15 17 16 14 13 11 10 11 11
20 13 4 6 9 2 2 7 12 15 21 22 30 25 8 4 5 5 8 8 11 10 8 9 12 11 10 10 9 10 9 10 9 11 13 15 15 15 14 13 11 10 10 10
20 18 10 4 6 14 10 7 11 8 13 19 28 24 12 14 13 10 13 12 9 13 17 17 16 14 14 13 14 17 16 15 13 11 12 13 13 13 13 12 12 11 11 10
17 17 18 9 3 7 6 10 17 9 13 11 23 23 19 18 17 9 15 10 14 18 21 23 20 18 16 17 20 21 17 14 12 11 11 11 10 10 10 10 9 9 9 7
11 15 11 6 5 6 10 13 19 9 2 2 10 19 27 18 11 19 19 19 18 16 20 21 20 21 18 19 23 20 17 13 13 13 12 11 10 9 9 8 8 8 8 7
5 4 4 11 8 3 24 6 8 3 2 4 7 7 13 13 10 21 19 19 18 20 21 21 24 23 20 20 22 21 15 16 16 15 14 12 10 9 8 7 7 6 7 6
5 3 3 3 7 6 19 2 4 3 2 2 3 11 16 12 19 18 17 16 15 19 21 23 24 20 21 23 24 23 19 18 19 18 15 12 11 9 7 6 5 4 6 6
2 3 2 5 2 4 4 7 3 5 4 5 6 12 15 20 17 21 18 17 14 19 20 22 22 22 23 22 21 17 15 14 17 18 16 15 13 10 8 6 3 3 4 5
3 3 3 3 2 4 5 8 7 9 8 10 14 10 15 21 22 19 15 15 23 23 24 24 25 28 24 21 20 18 16 14 15 16 14 12 11 10 10 10 7 4 2 4
Wind_Direction
184 157 203 211 206 112 141 189 242 238 253 237 234 269 273 279 249 261 258 240 238 239 234 200 181 176 179 184 182 181 178 179 179 171 167 179 193 193 178 155 123 59 35 28
99 234 199 163 191 201 150 171 238 271 214 202 318 282 262 246 246 216 247 248 244 178 163 154 160 165 173 175 179 178 179 179 181 181 179 180 183 195 186 181 152 89 32 36
171 197 180 155 162 196 242 213 239 234 335 219 325 286 286 268 239 213 229 248 230 184 167 164 156 163 169 173 177 177 179 180 181 183 181 175 162 161 187 192 177 156 44 30
251 194 135 167 184 148 233 206 212 230 59 242 1 282 293 259 269 226 215 194 189 168 145 158 161 162 169 174 175 176 176 179 183 187 187 186 181 173 185 184 169 155 76 32
232 176 158 177 194 164 222 139 179 157 204 355 254 291 268 300 271 232 211 199 188 185 172 171 170 166 169 168 171 173 175 179 183 187 193 191 180 169 169 182 172 153 123 51
244 276 188 195 143 168 155 87 58 64 89 292 199 188 255 197 215 209 184 188 185 181 174 159 162 164 163 167 169 172 176 179 183 185 191 193 185 177 172 186 177 162 134 56
160 211 204 166 94 65 127 116 5 356 10 228 344 272 261 260 229 219 194 189 189 180 170 162 158 162 166 172 174 176 178 180 183 183 186 192 186 181 182 189 183 173 131 110
181 250 169 182 182 169 187 166 163 194 201 233 63 229 244 238 242 193 171 172 167 181 182 179 176 172 176 178 181 181 181 182 186 186 186 188 186 184 186 194 195 185 173 127
171 235 21 268 159 143 195 210 156 107 55 53 214 284 288 221 231 200 166 159 179 184 188 187 177 182 184 185 187 187 185 185 190 189 188 190 190 188 190 195 206 194 190 146
192 113 354 142 350 356 167 158 94 13 153 247 265 280 247 251 223 200 200 196 188 180 179 186 185 188 192 192 191 191 192 190 191 192 193 194 192 187 189 195 207 200 192 171
148 121 5 127 214 175 151 183 175 137 162 184 227 255 218 225 200 198 200 191 184 181 181 184 188 194 194 192 192 194 193 193 194 196 196 196 192 190 192 195 204 207 193 189
185 112 148 189 272 307 16 185 176 174 217 244 145 262 295 269 265 186 183 178 179 177 179 179 179 182 186 191 191 196 197 199 201 201 200 197 192 195 198 196 200 202 202 198
179 183 112 70 338 231 209 193 184 108 85 196 162 249 6 304 242 208 161 167 168 163 161 164 162 178 186 190 193 197 202 205 204 203 202 198 197 199 202 203 203 201 204 205
168 140 201 199 190 134 201 197 204 203 214 215 223 237 251 220 213 199 178 166 162 168 167 168 170 181 186 193 196 200 207 208 206 204 203 203 201 204 203 205 206 205 208 214
173 210 203 212 136 167 190 195 191 201 218 206 237 220 220 215 210 196 170 158 158 170 169 172 168 173 177 183 192 197 204 205 204 204 205 207 203 205 204 202 203 204 208 213
184 232 128 213 87 94 116 192 196 209 221 228 169 267 224 140 120 172 195 174 185 189 182 173 168 166 177 180 186 189 197 201 203 205 207 204 202 203 206 203 201 204 207 210
177 140 143 220 129 90 290 208 190 210 217 221 211 230 161 194 191 188 196 192 185 184 177 177 178 174 181 182 184 189 191 194 202 206 204 203 202 204 205 204 200 200 203 206
186 182 163 145 132 211 238 167 188 203 214 221 239 194 210 193 210 201 181 179 172 177 170 171 161 155 166 172 181 186 192 192 195 198 198 198 199 201 201 203 204 202 203 206
185 173 143 163 195 312 180 198 179 181 238 220 228 230 221 140 87 229 171 179 171 161 146 155 158 154 153 150 150 153 152 165 170 177 183 188 189 191 193 196 197 203 207 208
188 194 187 163 162 207 228 170 145 98 269 214 216 220 168 145 207 211 172 158 139 132 139 142 144 141 137 135 136 129 122 127 129 147 161 169 177 186 192 194 195 198 208 215
189 190 198 192 190 266 218 148 139 142 245 187 198 201 174 193 209 150 151 131 137 138 137 141 137 130 128 132 132 116 118 110 120 133 141 149 161 174 180 184 189 198 203 208
201 189 191 161 158 244 163 147 172 214 39 175 192 197 193 192 126 145 151 141 139 136 135 137 123 113 118 127 121 110 103 113 123 131 134 136 146 155 164 175 183 187 189 200
235 254 193 194 188 176 174 195 180 118 170 218 184 181 178 141 143 150 145 143 141 141 138 135 123 114 115 117 114 107 107 115 116 117 114 116 126 140 154 168 180 177 184 212
237 114 258 123 203 195 198 250 171 134 232 172 161 139 146 137 142 137 136 136 136 137 136 134 126 118 109 116 112 106 108 109 108 105 104 105 112 113 113 124 134 167 192 215
118 101 227 257 47 83 202 224 166 123 134 122 118 140 143 136 142 140 137 135 136 130 127 131 126 120 121 119 110 108 114 116 108 103 97 92 87 86 87 87 114 177 205 221
139 243 258 253 183 150 204 191 180 163 174 161 137 130 146 144 139 134 130 133 137 133 130 124 121 121 122 117 111 109 112 111 105 102 101 104 98 85 75 70 64 60 65 232